| time (UTC) | temp F | wind direction | speed MPH | gust MPH | rain 1hr in | rain 24hr in | rain mn in | humidity % | barometer mb |
| 20260508200017 | 60 | 23 | 4.0 | 8.0 | 0.00 | 0.00 | 0.00 | 73 | 1013.0 |
| 20260508195036 | 60 | 68 | 4.0 | 11.0 | 0.00 | 0.00 | 0.00 | 73 | 1012.9 |
| 20260508194016 | 60 | 68 | 3.0 | 7.0 | 0.00 | 0.00 | 0.00 | 73 | 1012.7 |
| 20260508193016 | 60 | 68 | 2.0 | 5.0 | 0.00 | 0.00 | 0.00 | 73 | 1012.5 |
| 20260508192016 | 61 | 45 | 4.0 | 10.0 | 0.00 | 0.00 | 0.00 | 73 | 1012.6 |
| 20260508191016 | 61 | 45 | 4.0 | 10.0 | 0.00 | 0.00 | 0.00 | 72 | 1012.7 |
| 20260508190036 | 61 | 23 | 3.0 | 7.0 | 0.00 | 0.00 | 0.00 | 72 | 1012.6 |
| 20260508185056 | 61 | 45 | 5.0 | 13.0 | 0.00 | 0.00 | 0.00 | 71 | 1012.4 |
| 20260508184016 | 61 | 68 | 6.0 | 14.0 | 0.00 | 0.00 | 0.00 | 70 | 1012.4 |
| 20260508183016 | 62 | 68 | 8.0 | 14.0 | 0.00 | 0.00 | 0.00 | 70 | 1012.0 |
| 20260508182016 | 62 | 68 | 6.0 | 11.0 | 0.00 | 0.00 | 0.00 | 70 | 1011.7 |
| 20260508181016 | 61 | 68 | 7.0 | 13.0 | 0.00 | 0.00 | 0.00 | 71 | 1011.6 |
| 20260508180016 | 62 | 113 | 5.0 | 14.0 | 0.00 | 0.00 | 0.00 | 71 | 1011.5 |
| 20260508175016 | 62 | 90 | 5.0 | 10.0 | 0.00 | 0.00 | 0.00 | 70 | 1011.2 |
| 20260508174036 | 62 | 68 | 4.0 | 11.0 | 0.00 | 0.00 | 0.00 | 71 | 1011.0 |
| 20260508173036 | 63 | 68 | 5.0 | 11.0 | 0.00 | 0.00 | 0.00 | 70 | 1010.9 |
| 20260508172016 | 63 | 68 | 5.0 | 10.0 | 0.00 | 0.00 | 0.00 | 70 | 1010.8 |
| 20260508171017 | 64 | 45 | 5.0 | 10.0 | 0.00 | 0.00 | 0.00 | 69 | 1010.7 |
| 20260508170056 | 64 | 90 | 5.0 | 11.0 | 0.00 | 0.00 | 0.00 | 69 | 1010.4 |
| 20260508165036 | 65 | 68 | 2.0 | 11.0 | 0.00 | 0.00 | 0.00 | 68 | 1010.3 |
| 20260508164016 | 66 | 0.0 | 2.0 | 0.00 | 0.00 | 0.00 | 68 | 1010.2 | |
| 20260508163016 | 66 | 113 | 1.0 | 3.0 | 0.00 | 0.00 | 0.00 | 69 | 1010.1 |
| 20260508162016 | 65 | 0.0 | 2.0 | 0.00 | 0.00 | 0.00 | 71 | 1010.1 | |
| 20260508161016 | 65 | 0.0 | 2.0 | 0.00 | 0.00 | 0.00 | 71 | 1009.9 | |
| 20260508160036 | 65 | 90 | 2.0 | 5.0 | 0.00 | 0.00 | 0.00 | 71 | 1010.0 |
| 20260508155016 | 65 | 68 | 3.0 | 6.0 | 0.00 | 0.00 | 0.00 | 72 | 1009.9 |
| 20260508154036 | 66 | 68 | 3.0 | 7.0 | 0.00 | 0.00 | 0.00 | 71 | 1009.9 |
| 20260508153036 | 67 | 68 | 5.0 | 11.0 | 0.00 | 0.00 | 0.00 | 69 | 1009.8 |
| 20260508152016 | 69 | 0.0 | 4.0 | 0.00 | 0.00 | 0.00 | 68 | 1009.7 | |
| 20260508151017 | 70 | 203 | 1.0 | 5.0 | 0.00 | 0.00 | 0.00 | 67 | 1009.7 |
| 20260508150016 | 69 | 203 | 1.0 | 4.0 | 0.00 | 0.00 | 0.00 | 67 | 1009.8 |
| 20260508145016 | 69 | 203 | 3.0 | 6.0 | 0.00 | 0.00 | 0.00 | 65 | 1009.7 |
| 20260508144016 | 68 | 113 | 2.0 | 6.0 | 0.00 | 0.00 | 0.00 | 66 | 1009.7 |
| 20260508143016 | 68 | 68 | 3.0 | 5.0 | 0.00 | 0.00 | 0.00 | 68 | 1009.6 |
| 20260508142016 | 68 | 113 | 3.0 | 7.0 | 0.00 | 0.00 | 0.00 | 67 | 1009.7 |
| 20260508141016 | 68 | 113 | 1.0 | 5.0 | 0.00 | 0.00 | 0.00 | 68 | 1009.7 |
| 20260508140016 | 68 | 90 | 3.0 | 7.0 | 0.00 | 0.00 | 0.00 | 69 | 1009.8 |
| 20260508135016 | 68 | 90 | 3.0 | 9.0 | 0.00 | 0.00 | 0.00 | 71 | 1009.8 |
| 20260508134036 | 68 | 45 | 3.0 | 6.0 | 0.00 | 0.00 | 0.00 | 72 | 1009.9 |
| 20260508133036 | 68 | 68 | 2.0 | 6.0 | 0.00 | 0.00 | 0.00 | 72 | 1009.8 |
| 20260508132016 | 69 | 90 | 4.0 | 12.0 | 0.00 | 0.00 | 0.00 | 68 | 1009.9 |
| 20260508131016 | 69 | 203 | 1.0 | 5.0 | 0.00 | 0.00 | 0.00 | 66 | 1009.8 |
| 20260508130016 | 69 | 270 | 3.0 | 8.0 | 0.00 | 0.00 | 0.00 | 66 | 1009.7 |
| 20260508125016 | 70 | 270 | 4.0 | 12.0 | 0.00 | 0.00 | 0.00 | 64 | 1009.7 |
| 20260508124035 | 70 | 203 | 2.0 | 5.0 | 0.00 | 0.00 | 0.00 | 64 | 1009.6 |
| 20260508123015 | 70 | 225 | 3.0 | 8.0 | 0.00 | 0.00 | 0.00 | 65 | 1009.5 |
| 20260508122015 | 70 | 248 | 2.0 | 6.0 | 0.00 | 0.00 | 0.00 | 64 | 1009.5 |
| 20260508121035 | 70 | 203 | 3.0 | 6.0 | 0.00 | 0.00 | 0.00 | 64 | 1009.4 |
| 20260508120016 | 70 | 203 | 3.0 | 6.0 | 0.00 | 0.00 | 0.00 | 63 | 1009.4 |
| 20260508115015 | 71 | 270 | 1.0 | 8.0 | 0.00 | 0.00 | 0.00 | 64 | 1009.3 |
| 20260508114016 | 70 | 203 | 3.0 | 9.0 | 0.00 | 0.00 | 0.00 | 63 | 1009.3 |
| 20260508113016 | 70 | 225 | 2.0 | 7.0 | 0.00 | 0.00 | 0.00 | 63 | 1009.3 |
| 20260508112015 | 71 | 248 | 3.0 | 8.0 | 0.00 | 0.00 | 0.00 | 62 | 1009.3 |
| 20260508111015 | 71 | 203 | 1.0 | 2.0 | 0.00 | 0.00 | 0.00 | 61 | 1009.2 |
| 20260508110015 | 71 | 203 | 1.0 | 6.0 | 0.00 | 0.00 | 0.00 | 60 | 1009.2 |
| 20260508105015 | 70 | 90 | 1.0 | 3.0 | 0.00 | 0.00 | 0.00 | 63 | 1009.2 |
| 20260508104017 | 70 | 68 | 1.0 | 3.0 | 0.00 | 0.00 | 0.00 | 62 | 1009.2 |
| 20260508103017 | 71 | 225 | 2.0 | 6.0 | 0.00 | 0.00 | 0.00 | 62 | 1009.4 |
| 20260508102017 | 70 | 90 | 3.0 | 9.0 | 0.00 | 0.00 | 0.00 | 62 | 1009.3 |
| 20260508101017 | 70 | 158 | 4.0 | 9.0 | 0.00 | 0.00 | 0.00 | 62 | 1009.3 |
| 20260508100055 | 69 | 113 | 4.0 | 12.0 | 0.00 | 0.00 | 0.00 | 66 | 1009.2 |
| 20260508095017 | 69 | 113 | 6.0 | 12.0 | 0.00 | 0.00 | 0.00 | 66 | 1009.2 |
| 20260508094038 | 69 | 113 | 4.0 | 9.0 | 0.00 | 0.00 | 0.00 | 66 | 1009.2 |
| 20260508093017 | 69 | 113 | 6.0 | 10.0 | 0.00 | 0.00 | 0.00 | 65 | 1009.3 |
| 20260508092017 | 69 | 113 | 6.0 | 9.0 | 0.00 | 0.00 | 0.00 | 65 | 1009.2 |
| 20260508091017 | 69 | 113 | 3.0 | 7.0 | 0.00 | 0.00 | 0.00 | 66 | 1009.2 |
| 20260508090017 | 68 | 90 | 5.0 | 12.0 | 0.00 | 0.00 | 0.00 | 66 | 1009.2 |
| 20260508085017 | 68 | 113 | 5.0 | 10.0 | 0.00 | 0.00 | 0.00 | 66 | 1009.2 |
| 20260508084037 | 67 | 68 | 4.0 | 8.0 | 0.00 | 0.00 | 0.00 | 66 | 1009.2 |
| 20260508083017 | 67 | 68 | 5.0 | 11.0 | 0.00 | 0.00 | 0.00 | 67 | 1009.1 |
| 20260508082037 | 67 | 68 | 4.0 | 8.0 | 0.00 | 0.00 | 0.00 | 68 | 1008.9 |
| 20260508081017 | 67 | 68 | 5.0 | 10.0 | 0.00 | 0.00 | 0.00 | 67 | 1008.8 |
| 20260508080018 | 67 | 90 | 5.0 | 13.0 | 0.00 | 0.00 | 0.00 | 69 | 1008.8 |
| 20260508075017 | 67 | 90 | 6.0 | 10.0 | 0.00 | 0.00 | 0.00 | 67 | 1008.7 |
| 20260508074017 | 67 | 68 | 5.0 | 10.0 | 0.00 | 0.00 | 0.00 | 67 | 1008.7 |
| 20260508073017 | 67 | 68 | 5.0 | 10.0 | 0.00 | 0.00 | 0.00 | 67 | 1008.5 |
| 20260508072057 | 67 | 90 | 4.0 | 9.0 | 0.00 | 0.00 | 0.00 | 69 | 1008.7 |
| 20260508071017 | 67 | 68 | 3.0 | 9.0 | 0.00 | 0.00 | 0.00 | 67 | 1008.6 |
| 20260508070017 | 67 | 68 | 3.0 | 8.0 | 0.00 | 0.00 | 0.00 | 69 | 1008.5 |
| 20260508065017 | 66 | 90 | 2.0 | 7.0 | 0.00 | 0.00 | 0.00 | 71 | 1008.4 |
| 20260508064017 | 65 | 113 | 2.0 | 4.0 | 0.00 | 0.00 | 0.00 | 73 | 1008.5 |
| 20260508063017 | 64 | 113 | 1.0 | 3.0 | 0.00 | 0.00 | 0.00 | 75 | 1008.4 |
| 20260508062017 | 63 | 113 | 1.0 | 3.0 | 0.00 | 0.00 | 0.00 | 77 | 1008.3 |
| 20260508061037 | 63 | 0.0 | 2.0 | 0.00 | 0.00 | 0.00 | 77 | 1008.3 | |
| 20260508060037 | 62 | 0.0 | 1.0 | 0.00 | 0.00 | 0.00 | 78 | 1008.1 | |
| 20260508055017 | 62 | 0.0 | 1.0 | 0.00 | 0.00 | 0.00 | 78 | 1008.2 | |
| 20260508054037 | 61 | 0.0 | 0.0 | 0.00 | 0.00 | 0.00 | 77 | 1008.0 | |
| 20260508053017 | 61 | 0.0 | 3.0 | 0.00 | 0.00 | 0.00 | 78 | 1008.1 | |
| 20260508052017 | 61 | 113 | 1.0 | 4.0 | 0.00 | 0.00 | 0.00 | 77 | 1008.0 |
| 20260508051017 | 60 | 90 | 2.0 | 4.0 | 0.00 | 0.00 | 0.00 | 77 | 1007.9 |
| 20260508050017 | 60 | 0.0 | 0.0 | 0.00 | 0.00 | 0.00 | 77 | 1007.9 | |
| 20260508045017 | 60 | 0.0 | 0.0 | 0.00 | 0.00 | 0.00 | 76 | 1008.0 | |
| 20260508044017 | 60 | 0.0 | 0.0 | 0.00 | 0.00 | 0.00 | 75 | 1007.9 | |
| 20260508043037 | 61 | 113 | 1.0 | 3.0 | 0.00 | 0.01 | 0.00 | 74 | 1007.8 |
| 20260508042017 | 61 | 23 | 1.0 | 3.0 | 0.00 | 0.01 | 0.00 | 74 | 1007.8 |
| 20260508041017 | 60 | 0.0 | 0.0 | 0.00 | 0.01 | 0.00 | 75 | 1007.6 | |
| 20260508040017 | 61 | 0.0 | 0.0 | 0.00 | 0.01 | 0.00 | 74 | 1007.5 | |
| 20260508035017 | 61 | 0.0 | 0.0 | 0.00 | 0.01 | 0.00 | 73 | 1007.5 | |
| 20260508034017 | 61 | 0.0 | 1.0 | 0.00 | 0.01 | 0.00 | 74 | 1007.6 | |
| 20260508033016 | 60 | 23 | 2.0 | 6.0 | 0.00 | 0.01 | 0.00 | 76 | 1007.5 |
| 20260508032016 | 60 | 23 | 1.0 | 2.0 | 0.00 | 0.01 | 0.00 | 78 | 1007.5 |
| 20260508031037 | 60 | 0.0 | 3.0 | 0.00 | 0.01 | 0.00 | 78 | 1007.4 | |
| 20260508030017 | 60 | 0.0 | 0.0 | 0.00 | 0.01 | 0.00 | 78 | 1007.6 | |
| 20260508025037 | 60 | 0.0 | 0.0 | 0.00 | 0.01 | 0.00 | 78 | 1007.6 | |
| 20260508024016 | 61 | 0.0 | 2.0 | 0.00 | 0.01 | 0.00 | 76 | 1007.6 | |
| 20260508023017 | 61 | 338 | 1.0 | 1.0 | 0.00 | 0.01 | 0.00 | 77 | 1007.6 |
| 20260508022018 | 61 | 338 | 1.0 | 2.0 | 0.00 | 0.02 | 0.00 | 76 | 1007.6 |
| 20260508021038 | 61 | 0.0 | 3.0 | 0.00 | 0.02 | 0.00 | 75 | 1007.7 | |
| 20260508020016 | 61 | 0.0 | 0.0 | 0.00 | 0.03 | 0.00 | 75 | 1007.8 | |
| 20260508015016 | 62 | 0.0 | 0.0 | 0.00 | 0.04 | 0.00 | 73 | 1007.8 | |
| 20260508014017 | 62 | 0.0 | 0.0 | 0.00 | 0.05 | 0.00 | 74 | 1008.0 | |
| 20260508013016 | 62 | 0.0 | 0.0 | 0.00 | 0.06 | 0.00 | 73 | 1008.0 | |
| 20260508012016 | 62 | 0.0 | 2.0 | 0.00 | 0.06 | 0.00 | 75 | 1008.0 | |
| 20260508011016 | 62 | 0.0 | 1.0 | 0.00 | 0.06 | 0.00 | 75 | 1007.9 | |
| 20260508010016 | 62 | 0.0 | 0.0 | 0.00 | 0.06 | 0.00 | 76 | 1007.7 | |
| 20260508005016 | 62 | 0.0 | 2.0 | 0.00 | 0.06 | 0.00 | 76 | 1007.7 | |
| 20260508004056 | 62 | 0.0 | 0.0 | 0.00 | 0.06 | 0.00 | 75 | 1007.5 | |
| 20260508003016 | 63 | 0.0 | 0.0 | 0.00 | 0.06 | 0.00 | 74 | 1007.6 | |
| 20260508002016 | 63 | 0.0 | 0.0 | 0.00 | 0.06 | 0.00 | 74 | 1007.8 | |
| 20260508001016 | 63 | 338 | 1.0 | 3.0 | 0.00 | 0.06 | 0.00 | 75 | 1007.8 |
| 20260508000016 | 63 | 45 | 2.0 | 3.0 | 0.00 | 0.07 | 0.00 | 74 | 1007.9 |
| 20260507235017 | 64 | 45 | 1.0 | 4.0 | 0.00 | 0.08 | 0.00 | 70 | 1008.0 |
| 20260507234016 | 64 | 23 | 1.0 | 2.0 | 0.00 | 0.09 | 0.00 | 68 | 1007.9 |
| 20260507233016 | 65 | 270 | 1.0 | 4.0 | 0.00 | 0.10 | 0.00 | 69 | 1008.0 |
| 20260507232016 | 66 | 270 | 1.0 | 6.0 | 0.00 | 0.11 | 0.00 | 69 | 1008.2 |
| 20260507231016 | 65 | 248 | 2.0 | 5.0 | 0.00 | 0.11 | 0.00 | 69 | 1008.2 |
| 20260507230016 | 65 | 248 | 2.0 | 6.0 | 0.00 | 0.12 | 0.00 | 69 | 1008.4 |
| 20260507225016 | 66 | 293 | 1.0 | 5.0 | 0.00 | 0.12 | 0.00 | 68 | 1008.4 |
| 20260507224016 | 66 | 248 | 1.0 | 2.0 | 0.00 | 0.12 | 0.00 | 69 | 1008.5 |
| 20260507223036 | 66 | 248 | 1.0 | 2.0 | 0.00 | 0.13 | 0.00 | 67 | 1008.6 |
| 20260507222016 | 67 | 203 | 2.0 | 6.0 | 0.00 | 0.13 | 0.00 | 62 | 1008.7 |
| 20260507221036 | 68 | 0.0 | 1.0 | 0.00 | 0.13 | 0.00 | 57 | 1008.4 | |
| 20260507220016 | 68 | 23 | 4.0 | 7.0 | 0.00 | 0.13 | 0.13 | 57 | 1008.4 |
| 20260507215017 | 68 | 0.0 | 1.0 | 0.00 | 0.13 | 0.13 | 57 | 1008.4 | |
| 20260507214057 | 68 | 45 | 3.0 | 7.0 | 0.00 | 0.14 | 0.13 | 57 | 1008.4 |
| 20260507213036 | 67 | 68 | 3.0 | 6.0 | 0.00 | 0.14 | 0.13 | 59 | 1008.4 |
| 20260507212017 | 68 | 45 | 3.0 | 7.0 | 0.00 | 0.15 | 0.13 | 59 | 1008.2 |
| 20260507211017 | 68 | 68 | 4.0 | 7.0 | 0.00 | 0.15 | 0.13 | 57 | 1008.4 |
| 20260507210019 | 69 | 68 | 5.0 | 9.0 | 0.00 | 0.15 | 0.13 | 54 | 1008.2 |
| 20260507205016 | 70 | 90 | 5.0 | 14.0 | 0.00 | 0.15 | 0.13 | 51 | 1008.1 |
| 20260507204016 | 71 | 90 | 4.0 | 14.0 | 0.00 | 0.15 | 0.13 | 46 | 1008.0 |
| 20260507203037 | 71 | 23 | 3.0 | 10.0 | 0.00 | 0.15 | 0.13 | 43 | 1007.7 |
| 20260507202017 | 70 | 68 | 6.0 | 11.0 | 0.00 | 0.16 | 0.13 | 46 | 1007.9 |
| 20260507201037 | 71 | 68 | 8.0 | 15.0 | 0.00 | 0.16 | 0.13 | 45 | 1007.7 |